User: anonymous
Location: Voyageurs National Park
(48.5020°N, 92.9292°W)
Time: 03:06:02
(UTC-05:00)
Language:

Terra - Orbit

View from above orbital plane
View from above orbital plane
View from above satellite
View from above satellite

Ground track
Ground track

The orbit data is extracted from the following two-line orbital elements,

1 25994U 99068A   14106.84872991  .00000668  00000-0  15838-3 0  1496
2 25994 098.2157 182.4208 0001402 101.8299 258.3035 14.57125773762132
Epoch (UTC): 16 April 2014 20:22:10
Eccentricity: 0.0001402
inclination: 98.2157°
perigee height: 701 km
apogee height: 703 km
right ascension of ascending node: 182.4208°
argument of perigee: 101.8299°
revolutions per day: 14.57125773
mean anomaly at epoch: 258.3035°
orbit number at epoch: 76213

The dashed part of the orbit path shows where the satellite is in the earth's shadow,  

DLR